User: anonymous   Login
Location: Potomac
(46.8816°N, 113.5795°W)
Time: 08:27:01
(UTC+00:00)
Language:

Gurwin Techsat 1B - Orbit

View from above orbital plane
View from above orbital plane
View from above satellite
View from above satellite

Ground track
Ground track

The orbit data is extracted from the following two-line orbital elements,

1 25397U 98043D   22177.84575738  .00000017  00000-0  26987-4 0  9990
2 25397  98.8184 128.3389 0002403  83.8840 276.2612 14.23758984244760
Epoch (UTC): 26 June 2022 20:17:53
Eccentricity: 0.0002403
inclination: 98.8184°
perigee height: 811 km
apogee height: 814 km
right ascension of ascending node: 128.3389°
argument of perigee: 83.8840°
revolutions per day: 14.23758984
mean anomaly at epoch: 276.2612°
orbit number at epoch: 24476

The dashed part of the orbit path shows where the satellite is in the earth's shadow,  

DLR